DO9LL-1 Weather Reports


Display with metric or nautical units.
time (UTC)temp
F
wind
direction
speed
MPH
gust
MPH
rain 1hr
in
rain 24hr
in
rain mn
in
humidity
%
barometer
mb
20260508182227 58 257 0.0 2.0 0.00 0.00 0.00 63 1017.6
20260508181224 59 284 0.0 1.0 0.00 0.00 0.00 62 1017.5
20260508180221 59 0.0 0.0 0.00 0.00 0.00 61 1017.4
20260508175218 60 309 0.0 1.0 0.00 0.00 0.00 59 1017.3
20260508174235 61 285 0.0 1.0 0.00 0.00 0.00 57 1017.2
20260508173231 61 281 0.0 1.0 0.00 0.00 0.00 58 1017.1
20260508172227 62 251 2.0 3.0 0.00 0.00 0.00 56 1017.0
20260508171225 63 296 0.0 2.0 0.00 0.00 0.00 55 1017.0
20260508170220 63 322 0.0 1.0 0.00 0.00 0.00 55 1017.0
20260508165217 62 293 1.0 3.0 0.00 0.00 0.00 57 1016.9
20260508164235 61 300 1.0 3.0 0.00 0.00 0.00 59 1017.0
20260508163230 60 255 2.0 3.0 0.00 0.00 0.00 58 1017.0
20260508162227 61 310 1.0 2.0 0.00 0.00 0.00 57 1017.1
20260508161222 60 252 1.0 3.0 0.00 0.00 0.00 59 1017.1
20260508160218 61 297 1.0 3.0 0.00 0.00 0.00 57 1017.2
20260508155215 63 271 1.0 3.0 0.00 0.00 0.00 55 1017.1
20260508154233 62 297 1.0 4.0 0.00 0.00 0.00 57 1017.1
20260508153229 62 256 2.0 3.0 0.00 0.00 0.00 57 1017.1
20260508152226 61 308 1.0 2.0 0.00 0.00 0.00 59 1017.1
20260508151222 60 256 1.0 3.0 0.00 0.00 0.00 60 1017.2
20260508150219 62 287 0.0 2.0 0.00 0.00 0.00 57 1017.2
20260508145215 65 210 1.0 3.0 0.00 0.00 0.00 53 1017.2
20260508144232 66 310 1.0 3.0 0.00 0.00 0.00 53 1017.2
20260508143228 65 299 1.0 2.0 0.00 0.00 0.00 54 1017.3
20260508142225 64 307 1.0 3.0 0.00 0.00 0.00 54 1017.3
20260508141222 67 329 1.0 4.0 0.00 0.00 0.00 50 1017.3
20260508140219 65 254 1.0 3.0 0.00 0.00 0.00 56 1017.4
20260508135216 61 311 1.0 4.0 0.00 0.00 0.00 58 1017.4
20260508134232 62 299 1.0 2.0 0.00 0.00 0.00 56 1017.4
20260508133229 64 309 0.0 2.0 0.00 0.00 0.00 52 1017.5
20260508132228 67 237 1.0 3.0 0.00 0.00 0.00 51 1017.5
20260508131222 66 219 2.0 4.0 0.00 0.00 0.00 53 1017.4
20260508130219 66 259 1.0 3.0 0.00 0.00 0.00 53 1017.4
20260508125216 65 242 1.0 3.0 0.00 0.00 0.00 53 1017.6
20260508124232 66 206 2.0 4.0 0.00 0.00 0.00 54 1017.5
20260508123229 65 197 2.0 6.0 0.00 0.00 0.00 55 1017.5
20260508122225 63 202 2.0 3.0 0.00 0.00 0.00 56 1017.7
20260508121221 61 263 2.0 4.0 0.00 0.00 0.00 59 1017.6
20260508120218 62 302 1.0 2.0 0.00 0.00 0.00 57 1017.5
20260508115236 60 296 1.0 3.0 0.00 0.00 0.00 60 1017.6
20260508114233 59 234 1.0 3.0 0.00 0.00 0.00 62 1017.6
20260508113228 59 206 2.0 4.0 0.00 0.00 0.00 62 1017.7
20260508112224 61 291 0.0 2.0 0.00 0.00 0.00 61 1017.7
20260508111221 62 226 1.0 3.0 0.00 0.00 0.00 59 1017.7
20260508110217 62 273 2.0 3.0 0.00 0.00 0.00 60 1017.8
20260508105234 59 291 2.0 3.0 0.00 0.00 0.00 65 1017.8
20260508104230 59 239 1.0 2.0 0.00 0.00 0.00 65 1017.8
20260508103226 59 283 1.0 4.0 0.00 0.00 0.00 66 1017.8
20260508102223 59 256 2.0 4.0 0.00 0.00 0.00 65 1017.8
20260508101220 60 285 1.0 3.0 0.00 0.00 0.00 65 1017.8
20260508100217 61 244 2.0 4.0 0.00 0.00 0.00 65 1017.9
20260508095233 59 222 2.0 4.0 0.00 0.00 0.00 66 1017.9
20260508094230 59 280 2.0 3.0 0.00 0.00 0.00 68 1017.9
20260508093226 58 228 1.0 4.0 0.00 0.00 0.00 69 1017.9
20260508092224 58 243 1.0 2.0 0.00 0.00 0.00 69 1018.0
20260508091221 59 296 1.0 3.0 0.00 0.00 0.00 71 1018.0
20260508090217 58 206 2.0 3.0 0.00 0.00 0.00 69 1018.1
20260508085233 57 204 1.0 4.0 0.00 0.00 0.00 71 1018.0
20260508084230 56 237 2.0 3.0 0.00 0.00 0.00 73 1018.0
20260508083228 56 209 1.0 4.0 0.00 0.00 0.00 75 1018.1
20260508082224 55 242 2.0 4.0 0.00 0.00 0.00 77 1018.1
20260508081220 54 210 1.0 3.0 0.00 0.00 0.00 78 1018.0
20260508080217 53 223 1.0 2.0 0.00 0.00 0.00 81 1018.2
20260508075234 52 277 1.0 4.0 0.00 0.00 0.00 83 1018.2
20260508074231 52 247 2.0 3.0 0.00 0.00 0.00 82 1018.1
20260508073226 51 214 1.0 3.0 0.00 0.00 0.00 83 1018.0
20260508072223 51 225 1.0 3.0 0.00 0.00 0.00 84 1018.0
20260508071219 50 224 1.0 3.0 0.00 0.00 0.00 87 1018.0
20260508070219 50 207 1.0 3.0 0.00 0.00 0.00 87 1018.0
20260508065232 49 275 0.0 1.0 0.00 0.00 0.00 89 1017.9
20260508064229 49 212 1.0 2.0 0.00 0.00 0.00 90 1017.8
20260508063226 48 212 1.0 2.0 0.00 0.00 0.00 91 1017.7
20260508062222 47 259 1.0 2.0 0.00 0.00 0.00 93 1017.6
20260508061219 47 264 1.0 2.0 0.00 0.00 0.00 94 1017.5
20260508060215 46 271 1.0 2.0 0.00 0.00 0.00 95 1017.6
20260508055233 45 287 1.0 3.0 0.00 0.00 0.00 96 1017.5
20260508054229 45 289 1.0 3.0 0.00 0.00 0.00 96 1017.4
20260508053226 44 257 1.0 2.0 0.00 0.00 0.00 97 1017.4
20260508052223 44 270 1.0 2.0 0.00 0.00 0.00 97 1017.3
20260508051219 44 273 0.0 1.0 0.00 0.00 0.00 97 1017.2
20260508050216 43 277 0.0 1.0 0.00 0.00 0.00 97 1017.3
20260508045233 43 0.0 0.0 0.00 0.00 0.00 97 1017.2
20260508044229 43 276 0.0 1.0 0.00 0.00 0.00 97 1017.2
20260508043225 42 257 0.0 1.0 0.00 0.00 0.00 97 1017.2
20260508042227 42 261 0.0 1.0 0.00 0.00 0.00 97 1017.1
20260508041218 42 248 1.0 2.0 0.00 0.00 0.00 97 1017.1
20260508040235 42 227 1.0 1.0 0.00 0.00 0.00 97 1017.1
20260508035232 42 251 1.0 2.0 0.00 0.00 0.00 97 1017.0
20260508034229 42 268 0.0 1.0 0.00 0.00 0.00 97 1017.0
20260508033225 42 0.0 0.0 0.00 0.00 0.00 97 1017.0
20260508032222 42 0.0 0.0 0.00 0.00 0.00 97 1016.9
20260508031218 42 0.0 0.0 0.00 0.00 0.00 97 1017.0
20260508030235 42 0.0 0.0 0.00 0.00 0.00 97 1017.0
20260508025232 42 0.0 0.0 0.00 0.00 0.00 97 1017.0
20260508024228 42 0.0 0.0 0.00 0.00 0.00 97 1017.0
20260508023225 42 0.0 0.0 0.00 0.00 0.00 97 1017.0
20260508022222 42 0.0 0.0 0.00 0.00 0.00 97 1016.9
20260508021220 42 0.0 0.0 0.00 0.00 0.00 96 1017.0
20260508020215 42 0.0 0.0 0.00 0.00 0.00 96 1016.9
20260508015232 42 0.0 0.0 0.00 0.00 0.00 96 1017.0
20260508014229 42 0.0 0.0 0.00 0.00 0.00 96 1017.0
20260508013225 42 0.0 0.0 0.00 0.00 0.00 96 1016.9
20260508012222 43 0.0 0.0 0.00 0.00 0.00 96 1017.1
20260508011218 43 0.0 0.0 0.00 0.00 0.00 96 1017.1
20260508010235 43 0.0 0.0 0.00 0.00 0.00 96 1017.1
20260508005232 44 0.0 0.0 0.00 0.00 0.00 96 1017.0
20260508004228 44 0.0 0.0 0.00 0.00 0.00 96 1017.1
20260508003225 44 0.0 0.0 0.00 0.00 0.00 96 1017.2
20260508002222 44 0.0 0.0 0.00 0.00 0.00 96 1017.3
20260508001218 44 0.0 0.0 0.00 0.00 0.00 96 1017.3
20260508000235 44 0.0 0.0 0.00 0.00 0.00 95 1017.2
20260507235231 44 0.0 0.0 0.00 0.00 0.00 95 1017.1
20260507234228 0 0.0 0.0 0.00 0.00 0.00 1017.3
20260507233226 0 0.0 0.0 0.00 0.00 0.00 1017.2
20260507232221 0 0.0 0.0 0.00 0.00 0.00 1017.3
20260507231218 0 0.0 0.0 0.00 0.00 0.00 1017.3
20260507230234 0 0.0 0.0 0.00 0.00 0.00 1017.3
20260507225231 0 0.0 0.0 0.00 0.00 0.00 1017.2
20260507224228 0 0.0 0.0 0.00 0.00 0.00 1017.2
20260507223224 0 0.0 0.0 0.00 0.00 0.00 1017.2
20260507222220 0 0.0 0.0 0.00 0.00 0.00 1017.2
20260507221217 0 0.0 0.0 0.00 0.00 0.00 1017.0
20260507220234 0 0.0 0.0 0.00 0.00 0.00 1017.0
20260507215230 0 0.0 0.0 0.00 0.00 0.00 1017.0
20260507214227 0 0.0 0.0 0.00 0.00 0.00 1017.1
20260507213223 0 0.0 0.0 0.00 0.00 0.00 1016.9
20260507212220 46 259 0.0 1.0 0.00 0.00 0.00 92 1017.0
20260507211217 46 0.0 0.0 0.00 0.00 0.00 92 1017.0
20260507210234 46 0.0 0.0 0.00 0.00 0.00 91 1016.9
20260507205231 46 252 0.0 1.0 0.00 0.00 0.00 91 1016.9
20260507204227 46 247 1.0 1.0 0.00 0.00 0.00 90 1016.9
20260507203224 46 242 0.0 1.0 0.00 0.00 0.00 90 1016.9
20260507202220 47 267 0.0 1.0 0.00 0.00 0.00 89 1016.7
20260507201216 47 224 0.0 1.0 0.00 0.00 0.00 88 1016.6
20260507200233 48 248 1.0 2.0 0.00 0.00 0.00 87 1016.6
20260507195230 48 279 0.0 1.0 0.00 0.00 0.00 86 1016.5
20260507194226 48 265 1.0 1.0 0.00 0.00 0.00 85 1016.5
20260507193223 49 255 1.0 2.0 0.00 0.00 0.00 84 1016.5
20260507192220 49 235 0.0 2.0 0.00 0.00 0.00 83 1016.3
20260507191216 50 243 0.0 1.0 0.00 0.00 0.00 81 1016.3
20260507190233 50 225 0.0 1.0 0.00 0.00 0.00 79 1016.2
20260507185230 51 241 0.0 1.0 0.00 0.00 0.00 77 1016.2
20260507184226 51 251 0.0 1.0 0.00 0.00 0.00 75 1016.0
20260507183223 52 274 0.0 1.0 0.00 0.00 0.00 74 1016.0